Weather History for Dayton Wright, OH

Change the Weather History Date:

Monday, December 10, 2012

  Actual Average (KFFO) Record (KFFO)
Temperature  
Mean Temperature 42 °F -  
Max Temperature 55 °F 41 °F 55 °F (1996)
Min Temperature 30 °F 27 °F 15 °F (2011)
Degree Days  
Heating Degree Days 22    
Moisture  
Dew Point 38 °F    
Average Humidity 88    
Maximum Humidity 100    
Minimum Humidity 75    
Precipitation  
Precipitation 0.02 in - - ()
Sea Level Pressure  
Sea Level Pressure 29.74 in    
Wind  
Wind Speed 10 mph (WNW)    
Max Wind Speed 14 mph    
Max Gust Speed 18 mph    
Visibility 8 miles    
Events Rain , Snow    
Averages and records for this station are not official NWS values.
T = Trace of Precipitation, MM = Missing Value Source: NWS Daily Summary

Daily Weather History Graph

Daily Weather History Graph

Search for Another Location

Airport:

Trip Planner

Search our weather history database for the weather conditions in past years. The results will help you decide how hot, cold, wet, or windy it might be!

Date:

Astronomy

Dec. 10, 2012 Rise Set
Actual Time 7:46 AM EST 5:12 PM EST
Civil Twilight 7:16 AM EST 5:43 PM EST
Nautical Twilight 6:43 AM EST 6:16 PM EST
Astronomical Twilight 6:10 AM EST 6:49 PM EST
Moon 4:29 AM EST (12/10) 3:01 PM EST (12/10)
Length of Visible Light 10h 26m
Length of Day
9h 25m
Waning Crescent, 10% of the Moon is Illuminated
Dec 10
Waning Crescent
Dec 13
New
Dec 20
First Quarter
Dec 28
Full
Jan 4
Last Quarter

Hourly Weather History & Observations

Time (EST) Temp. Windchill Dew Point Humidity Pressure Visibility Wind Dir Wind Speed Gust Speed Precip Events Conditions
12:14 AM 53.6 °F - 53.6 °F 100% 29.68 in 10.0 mi South 10.4 mph - 0.01 in Rain Light Rain
12:26 AM 53.6 °F - 53.6 °F 100% 29.67 in 10.0 mi South 11.5 mph - 0.01 in   Overcast
12:39 AM 53.6 °F - 53.6 °F 100% 29.67 in 10.0 mi South 9.2 mph - 0.01 in   Overcast
12:53 AM 55.0 °F - 53.1 °F 93% 29.67 in 10.0 mi SW 8.1 mph - 0.01 in   Overcast
1:38 AM 53.6 °F - 53.6 °F 100% 29.68 in 8.0 mi SW 9.2 mph - N/A   Overcast
1:53 AM 54.0 °F - 54.0 °F 100% 29.68 in 4.0 mi SW 10.4 mph - N/A   Overcast
2:04 AM 53.6 °F - 53.6 °F 100% 29.67 in 2.0 mi SW 9.2 mph - 0.01 in   Overcast
2:13 AM 53.6 °F - 53.6 °F 100% 29.68 in 2.5 mi SW 9.2 mph - 0.01 in   Overcast
2:21 AM 53.6 °F - 53.6 °F 100% 29.67 in 3.0 mi SW 9.2 mph - 0.01 in   Overcast
2:48 AM 51.8 °F - 51.8 °F 100% 29.67 in 7.0 mi WNW 12.7 mph - 0.01 in   Overcast
2:53 AM 51.1 °F - 50.0 °F 96% 29.68 in 6.0 mi WNW 11.5 mph - 0.01 in   Overcast
3:53 AM 50.0 °F - 48.0 °F 93% 29.68 in 2.5 mi WNW 8.1 mph - N/A   Overcast
4:00 AM 48.2 °F - 48.2 °F 100% 29.68 in 4.0 mi West 10.4 mph 16.1 mph N/A   Overcast
4:19 AM 48.2 °F - 46.4 °F 93% 29.68 in 4.0 mi West 10.4 mph - N/A   Overcast
4:53 AM 48.0 °F - 46.9 °F 96% 29.68 in 7.0 mi West 5.8 mph - N/A   Overcast
5:50 AM 46.4 °F 41.5 °F 44.6 °F 93% 29.68 in 4.0 mi NW 10.4 mph - N/A   Overcast
5:53 AM 46.0 °F 41.0 °F 44.1 °F 93% 29.69 in 4.0 mi WNW 10.4 mph - N/A   Overcast
6:30 AM 44.6 °F 39.2 °F 42.8 °F 93% 29.69 in 10.0 mi WNW 10.4 mph 18.4 mph N/A   Overcast
6:53 AM 43.0 °F 39.5 °F 41.0 °F 93% 29.70 in 10.0 mi WNW 5.8 mph - N/A   Overcast
7:21 AM 42.8 °F 37.5 °F 39.2 °F 87% 29.69 in 9.0 mi NW 9.2 mph - N/A   Overcast
7:53 AM 41.0 °F 34.7 °F 39.0 °F 93% 29.71 in 8.0 mi NW 10.4 mph - N/A   Overcast
8:53 AM 39.9 °F 32.9 °F 37.0 °F 89% 29.73 in 9.0 mi NW 11.5 mph - N/A   Overcast
9:23 AM 39.2 °F 32.5 °F 33.8 °F 81% 29.72 in 10.0 mi NW 10.4 mph - N/A   Overcast
9:53 AM 39.0 °F 33.4 °F 34.0 °F 82% 29.72 in 10.0 mi NW 8.1 mph - N/A   Overcast
10:43 AM 39.2 °F 34.2 °F 33.8 °F 81% 29.71 in 10.0 mi WNW 6.9 mph - N/A   Mostly Cloudy
10:53 AM 39.9 °F 35.1 °F 33.1 °F 77% 29.71 in 10.0 mi NW 6.9 mph - N/A   Mostly Cloudy
11:53 AM 39.9 °F 35.8 °F 33.1 °F 77% 29.73 in 10.0 mi WNW 5.8 mph - N/A   Overcast
12:53 PM 37.9 °F 30.0 °F 32.0 °F 79% 29.73 in 10.0 mi WNW 12.7 mph - N/A   Overcast
1:19 PM 37.4 °F 28.9 °F 32.0 °F 81% 29.71 in 9.0 mi NW 13.8 mph - N/A   Overcast
1:53 PM 35.1 °F 26.4 °F 30.0 °F 82% 29.73 in 10.0 mi NW 12.7 mph - N/A   Overcast
2:17 PM 35.6 °F 27.5 °F 28.4 °F 75% 29.72 in 10.0 mi WNW 11.5 mph - N/A   Overcast
2:53 PM 34.0 °F 26.0 °F 28.9 °F 82% 29.75 in 10.0 mi WNW 10.4 mph - N/A   Overcast
3:00 PM 33.8 °F 24.8 °F 28.4 °F 81% 29.73 in 10.0 mi NW 12.7 mph - N/A   Overcast
3:07 PM 33.8 °F 26.4 °F 28.4 °F 81% 29.73 in 10.0 mi NW 9.2 mph - N/A   Overcast
3:53 PM 33.1 °F 24.9 °F 28.0 °F 82% 29.75 in 7.0 mi NW 10.4 mph - 0.00 in Snow Light Snow
4:53 PM 32.0 °F 24.8 °F 28.0 °F 85% 29.78 in 7.0 mi NW 8.1 mph - 0.00 in   Overcast
5:25 PM 32.0 °F 24.8 °F 26.6 °F 80% 29.78 in 9.0 mi West 8.1 mph - N/A   Overcast
5:45 PM 32.0 °F 27.5 °F 28.4 °F 87% 29.77 in 4.0 mi WNW 4.6 mph - 0.00 in Snow Light Snow
5:53 PM 32.0 °F 25.6 °F 28.0 °F 85% 29.79 in 5.0 mi WNW 6.9 mph - 0.00 in Snow Light Snow
6:53 PM 32.0 °F 24.8 °F 27.0 °F 82% 29.83 in 8.0 mi WNW 8.1 mph - 0.00 in   Overcast
7:13 PM 32.0 °F 23.6 °F 26.6 °F 80% 29.81 in 9.0 mi WNW 10.4 mph - N/A   Overcast
7:42 PM 32.0 °F 23.6 °F 28.4 °F 87% 29.83 in 10.0 mi WNW 10.4 mph 17.3 mph N/A   Overcast
7:53 PM 32.0 °F 24.2 °F 27.0 °F 82% 29.85 in 10.0 mi WNW 9.2 mph - N/A   Overcast
8:53 PM 32.0 °F 26.4 °F 27.0 °F 82% 29.88 in 10.0 mi West 5.8 mph - N/A   Overcast
9:02 PM 32.0 °F 26.4 °F 26.6 °F 80% 29.86 in 10.0 mi West 5.8 mph - N/A   Overcast
9:25 PM 32.0 °F 24.8 °F 26.6 °F 80% 29.86 in 10.0 mi West 8.1 mph - N/A   Overcast
9:53 PM 32.0 °F 24.2 °F 28.0 °F 85% 29.91 in 6.0 mi WNW 9.2 mph - N/A   Overcast
10:48 PM 30.2 °F 23.4 °F 28.4 °F 93% 29.89 in 5.0 mi West 6.9 mph - N/A   Overcast
10:53 PM 30.9 °F 25.2 °F 28.0 °F 89% 29.92 in 6.0 mi West 5.8 mph - N/A   Overcast
11:53 PM 30.9 °F 25.2 °F 28.0 °F 89% 29.94 in 7.0 mi West 5.8 mph - N/A   Overcast